| time (UTC) | temp F | wind direction | speed knots | gust knots | rain 1hr in | rain 24hr in | rain mn in | humidity % | barometer mb |
| 20260508075010 | 40 | 266 | 2.6 | 7.0 | 0.00 | 0.00 | 0.00 | 63 | 1019.8 |
| 20260508074527 | 40 | 271 | 3.5 | 7.0 | 0.00 | 0.00 | 0.00 | 63 | 1019.8 |
| 20260508074007 | 40 | 269 | 5.2 | 11.3 | 0.00 | 0.00 | 0.00 | 61 | 1019.9 |
| 20260508073507 | 40 | 267 | 6.1 | 11.3 | 0.00 | 0.00 | 0.00 | 61 | 1020.0 |
| 20260508073022 | 40 | 279 | 5.2 | 8.7 | 0.00 | 0.00 | 0.00 | 61 | 1020.0 |
| 20260508072507 | 40 | 257 | 5.2 | 7.8 | 0.00 | 0.00 | 0.00 | 62 | 1019.9 |
| 20260508072008 | 40 | 272 | 4.3 | 7.0 | 0.00 | 0.00 | 0.00 | 63 | 1019.9 |
| 20260508071524 | 40 | 276 | 4.3 | 8.7 | 0.00 | 0.00 | 0.00 | 64 | 1019.9 |
| 20260508071008 | 40 | 285 | 5.2 | 10.4 | 0.00 | 0.00 | 0.00 | 64 | 1019.9 |
| 20260508070508 | 40 | 283 | 7.0 | 16.5 | 0.00 | 0.00 | 0.00 | 64 | 1020.1 |
| 20260508070025 | 40 | 297 | 7.8 | 19.1 | 0.00 | 0.00 | 0.00 | 64 | 1020.1 |
| 20260508065509 | 40 | 281 | 13.0 | 26.1 | 0.00 | 0.00 | 0.00 | 65 | 1020.2 |
| 20260508065007 | 41 | 281 | 15.6 | 26.1 | 0.00 | 0.00 | 0.00 | 61 | 1020.0 |
| 20260508064540 | 41 | 277 | 8.7 | 13.0 | 0.00 | 0.00 | 0.00 | 60 | 1020.0 |
| 20260508064010 | 41 | 263 | 6.1 | 11.3 | 0.00 | 0.00 | 0.00 | 60 | 1019.9 |
| 20260508063511 | 41 | 255 | 5.2 | 9.6 | 0.00 | 0.00 | 0.00 | 60 | 1019.7 |
| 20260508063030 | 41 | 236 | 6.1 | 9.6 | 0.00 | 0.00 | 0.00 | 61 | 1019.7 |
| 20260508062508 | 41 | 257 | 6.1 | 9.6 | 0.00 | 0.00 | 0.00 | 60 | 1019.7 |
| 20260508062009 | 41 | 259 | 6.1 | 8.7 | 0.00 | 0.00 | 0.00 | 60 | 1019.7 |
| 20260508061523 | 41 | 266 | 6.1 | 8.7 | 0.00 | 0.00 | 0.00 | 61 | 1019.7 |
| 20260508061008 | 40 | 259 | 3.5 | 6.1 | 0.00 | 0.00 | 0.00 | 63 | 1019.7 |
| 20260508060512 | 40 | 283 | 3.5 | 6.1 | 0.00 | 0.00 | 0.00 | 63 | 1019.8 |
| 20260508060024 | 41 | 276 | 2.6 | 7.8 | 0.00 | 0.00 | 0.00 | 63 | 1019.8 |
| 20260508055508 | 41 | 277 | 3.5 | 8.7 | 0.00 | 0.00 | 0.00 | 63 | 1019.8 |
| 20260508055008 | 41 | 282 | 4.3 | 8.7 | 0.00 | 0.00 | 0.00 | 61 | 1019.7 |
| 20260508054538 | 41 | 285 | 5.2 | 7.8 | 0.00 | 0.00 | 0.00 | 62 | 1019.8 |
| 20260508054007 | 41 | 307 | 4.3 | 7.8 | 0.00 | 0.00 | 0.00 | 63 | 1019.9 |
| 20260508053511 | 41 | 296 | 4.3 | 8.7 | 0.00 | 0.00 | 0.00 | 62 | 1019.9 |
| 20260508053028 | 41 | 286 | 5.2 | 8.7 | 0.00 | 0.00 | 0.00 | 62 | 1019.9 |
| 20260508052507 | 42 | 273 | 7.0 | 10.4 | 0.00 | 0.00 | 0.00 | 61 | 1019.9 |
| 20260508052011 | 42 | 276 | 4.3 | 14.8 | 0.00 | 0.00 | 0.00 | 61 | 1019.9 |
| 20260508051518 | 42 | 278 | 7.8 | 14.8 | 0.00 | 0.00 | 0.00 | 61 | 1020.0 |
| 20260508051008 | 42 | 243 | 5.2 | 8.7 | 0.00 | 0.00 | 0.00 | 62 | 1020.0 |
| 20260508050509 | 42 | 261 | 3.5 | 11.3 | 0.00 | 0.00 | 0.00 | 61 | 1020.0 |
| 20260508050021 | 42 | 279 | 7.0 | 11.3 | 0.00 | 0.00 | 0.00 | 61 | 1020.0 |
| 20260508045509 | 41 | 252 | 2.6 | 7.8 | 0.00 | 0.00 | 0.00 | 64 | 1019.9 |
| 20260508045003 | 42 | 3 | 3.5 | 9.6 | 0.00 | 0.00 | 0.00 | 64 | 1020.0 |
| 20260508044505 | 42 | 285 | 7.0 | 14.8 | 0.00 | 0.00 | 0.00 | 61 | 1020.0 |
| 20260508044004 | 42 | 247 | 7.0 | 16.5 | 0.00 | 0.00 | 0.00 | 61 | 1020.0 |
| 20260508043504 | 43 | 262 | 9.6 | 16.5 | 0.00 | 0.00 | 0.00 | 60 | 1020.1 |
| 20260508043009 | 43 | 263 | 6.1 | 14.8 | 0.00 | 0.00 | 0.00 | 58 | 1020.1 |
| 20260508042504 | 43 | 274 | 9.6 | 14.8 | 0.00 | 0.00 | 0.00 | 59 | 1019.9 |
| 20260508042004 | 43 | 320 | 5.2 | 9.6 | 0.00 | 0.00 | 0.00 | 60 | 1020.1 |
| 20260508041515 | 43 | 313 | 6.1 | 8.7 | 0.00 | 0.00 | 0.00 | 58 | 1020.0 |
| 20260508041008 | 43 | 251 | 4.3 | 10.4 | 0.00 | 0.00 | 0.00 | 57 | 1019.8 |
| 20260508040508 | 44 | 268 | 7.0 | 11.3 | 0.00 | 0.00 | 0.00 | 56 | 1019.7 |
| 20260508040035 | 44 | 269 | 7.8 | 13.0 | 0.00 | 0.00 | 0.00 | 56 | 1019.8 |
| 20260508035508 | 44 | 271 | 6.1 | 13.0 | 0.00 | 0.00 | 0.00 | 56 | 1019.8 |
| 20260508035008 | 44 | 273 | 7.0 | 13.0 | 0.00 | 0.00 | 0.00 | 55 | 1019.7 |
| 20260508034537 | 44 | 283 | 9.6 | 13.0 | 0.00 | 0.00 | 0.00 | 55 | 1019.8 |
| 20260508034007 | 44 | 270 | 5.2 | 11.3 | 0.00 | 0.00 | 0.00 | 58 | 1019.8 |
| 20260508033509 | 43 | 257 | 6.1 | 11.3 | 0.00 | 0.00 | 0.00 | 59 | 1019.8 |
| 20260508033007 | 44 | 274 | 1.7 | 8.7 | 0.00 | 0.00 | 0.00 | 59 | 1019.8 |
| 20260508032505 | 44 | 20 | 2.6 | 7.0 | 0.00 | 0.00 | 0.00 | 58 | 1019.7 |
| 20260508032005 | 45 | 336 | 2.6 | 6.1 | 0.00 | 0.00 | 0.00 | 55 | 1019.6 |
| 20260508031515 | 45 | 274 | 3.5 | 6.1 | 0.00 | 0.00 | 0.00 | 55 | 1019.8 |
| 20260508031005 | 45 | 281 | 3.5 | 6.1 | 0.00 | 0.00 | 0.00 | 55 | 1019.8 |
| 20260508030504 | 44 | 308 | 4.3 | 9.6 | 0.00 | 0.00 | 0.00 | 55 | 1019.5 |
| 20260508030014 | 44 | 304 | 5.2 | 9.6 | 0.00 | 0.00 | 0.00 | 56 | 1019.5 |
| 20260508025508 | 43 | 283 | 1.7 | 7.0 | 0.00 | 0.00 | 0.00 | 60 | 1019.3 |
| 20260508025009 | 43 | 294 | 1.7 | 7.0 | 0.00 | 0.00 | 0.00 | 63 | 1019.2 |
| 20260508024525 | 43 | 212 | 3.5 | 10.4 | 0.00 | 0.00 | 0.00 | 62 | 1019.0 |
| 20260508024011 | 44 | 293 | 6.1 | 10.4 | 0.00 | 0.00 | 0.00 | 56 | 1019.1 |
| 20260508023509 | 44 | 243 | 4.3 | 7.8 | 0.00 | 0.00 | 0.00 | 57 | 1019.1 |
| 20260508023021 | 44 | 281 | 5.2 | 7.8 | 0.00 | 0.00 | 0.00 | 57 | 1019.0 |
| 20260508022509 | 44 | 248 | 4.3 | 7.0 | 0.00 | 0.00 | 0.00 | 57 | 1018.9 |
| 20260508022008 | 44 | 273 | 5.2 | 8.7 | 0.00 | 0.00 | 0.00 | 56 | 1018.9 |
| 20260508021507 | 45 | 255 | 4.3 | 11.3 | 0.00 | 0.00 | 0.00 | 55 | 1018.9 |
| 20260508021004 | 45 | 284 | 7.0 | 15.6 | 0.00 | 0.00 | 0.00 | 54 | 1018.9 |
| 20260508020504 | 45 | 277 | 7.8 | 15.6 | 0.00 | 0.00 | 0.00 | 54 | 1018.8 |
| 20260508020007 | 45 | 283 | 7.8 | 13.9 | 0.00 | 0.00 | 0.00 | 54 | 1018.8 |
| 20260508015504 | 45 | 269 | 8.7 | 18.2 | 0.00 | 0.00 | 0.00 | 54 | 1018.7 |
| 20260508015006 | 45 | 278 | 8.7 | 20.0 | 0.00 | 0.00 | 0.00 | 54 | 1018.6 |
| 20260508014516 | 45 | 236 | 10.4 | 20.0 | 0.00 | 0.00 | 0.00 | 54 | 1018.5 |
| 20260508014007 | 45 | 268 | 10.4 | 19.1 | 0.00 | 0.00 | 0.00 | 54 | 1018.6 |
| 20260508013505 | 45 | 283 | 10.4 | 19.1 | 0.00 | 0.00 | 0.00 | 55 | 1018.6 |
| 20260508013017 | 45 | 262 | 10.4 | 19.1 | 0.00 | 0.00 | 0.00 | 55 | 1018.6 |
| 20260508012510 | 45 | 266 | 13.9 | 19.1 | 0.00 | 0.00 | 0.00 | 55 | 1018.6 |
| 20260508012008 | 45 | 250 | 10.4 | 16.5 | 0.00 | 0.00 | 0.00 | 57 | 1018.5 |
| 20260508011523 | 45 | 252 | 7.8 | 19.1 | 0.00 | 0.00 | 0.00 | 57 | 1018.7 |
| 20260508011009 | 45 | 274 | 9.6 | 19.1 | 0.00 | 0.00 | 0.00 | 56 | 1018.8 |
| 20260508010509 | 45 | 281 | 11.3 | 19.1 | 0.00 | 0.00 | 0.00 | 55 | 1018.8 |
| 20260508010029 | 45 | 263 | 9.6 | 19.1 | 0.00 | 0.00 | 0.00 | 56 | 1018.8 |
| 20260508005505 | 45 | 274 | 13.0 | 19.1 | 0.00 | 0.00 | 0.00 | 54 | 1018.7 |
| 20260508005006 | 46 | 258 | 8.7 | 14.8 | 0.00 | 0.00 | 0.00 | 55 | 1018.7 |
| 20260508004510 | 46 | 273 | 6.1 | 17.4 | 0.00 | 0.00 | 0.00 | 54 | 1018.8 |
| 20260508004007 | 46 | 266 | 8.7 | 17.4 | 0.00 | 0.00 | 0.00 | 55 | 1018.7 |
| 20260508003508 | 46 | 254 | 7.8 | 16.5 | 0.00 | 0.00 | 0.00 | 55 | 1018.7 |
| 20260508003018 | 46 | 255 | 5.2 | 15.6 | 0.00 | 0.00 | 0.00 | 54 | 1018.8 |
| 20260508002505 | 46 | 249 | 9.6 | 18.2 | 0.00 | 0.00 | 0.00 | 54 | 1018.8 |
| 20260508002010 | 46 | 277 | 7.8 | 20.0 | 0.00 | 0.00 | 0.00 | 55 | 1018.7 |
| 20260508001519 | 46 | 240 | 13.0 | 25.2 | 0.00 | 0.00 | 0.00 | 53 | 1018.6 |
| 20260508001008 | 47 | 278 | 15.6 | 26.9 | 0.00 | 0.00 | 0.00 | 52 | 1018.5 |
| 20260508000512 | 47 | 271 | 13.9 | 26.9 | 0.00 | 0.00 | 0.00 | 52 | 1018.5 |
| 20260508000027 | 48 | 265 | 18.2 | 25.2 | 0.00 | 0.00 | 0.00 | 47 | 1018.4 |
| 20260507235507 | 48 | 279 | 11.3 | 22.6 | 0.00 | 0.00 | 0.00 | 43 | 1018.4 |
| 20260507235010 | 48 | 259 | 6.1 | 15.6 | 0.00 | 0.00 | 0.00 | 45 | 1018.1 |
| 20260507234542 | 49 | 298 | 6.1 | 20.9 | 0.00 | 0.00 | 0.00 | 44 | 1018.0 |
| 20260507234002 | 49 | 274 | 11.3 | 20.9 | 0.00 | 0.00 | 0.00 | 43 | 1018.1 |
| 20260507233504 | 49 | 295 | 7.8 | 16.5 | 0.00 | 0.00 | 0.00 | 43 | 1018.1 |
| 20260507233018 | 50 | 248 | 8.7 | 21.7 | 0.00 | 0.00 | 0.00 | 43 | 1018.2 |
| 20260507232504 | 50 | 269 | 13.0 | 26.9 | 0.00 | 0.00 | 0.00 | 42 | 1018.1 |
| 20260507232007 | 50 | 282 | 18.2 | 26.9 | 0.00 | 0.00 | 0.00 | 43 | 1018.3 |
| 20260507231515 | 49 | 276 | 15.6 | 22.6 | 0.00 | 0.00 | 0.00 | 45 | 1018.3 |
| 20260507231008 | 50 | 295 | 16.5 | 22.6 | 0.00 | 0.00 | 0.00 | 44 | 1018.2 |
| 20260507230506 | 51 | 264 | 14.8 | 20.9 | 0.00 | 0.00 | 0.00 | 45 | 1018.2 |
| 20260507230023 | 50 | 256 | 11.3 | 20.9 | 0.00 | 0.00 | 0.00 | 44 | 1018.2 |
| 20260507225509 | 50 | 269 | 10.4 | 23.5 | 0.00 | 0.00 | 0.00 | 46 | 1018.2 |
| 20260507225009 | 48 | 289 | 16.5 | 26.1 | 0.00 | 0.00 | 0.00 | 46 | 1018.5 |
| 20260507224528 | 48 | 268 | 14.8 | 26.1 | 0.00 | 0.00 | 0.00 | 47 | 1018.8 |
| 20260507224003 | 49 | 264 | 16.5 | 26.1 | 0.00 | 0.00 | 0.00 | 43 | 1018.7 |
| 20260507223503 | 51 | 254 | 13.0 | 26.1 | 0.00 | 0.00 | 0.00 | 43 | 1018.4 |
| 20260507223010 | 49 | 269 | 17.4 | 28.7 | 0.00 | 0.00 | 0.00 | 43 | 1018.5 |
| 20260507222502 | 49 | 281 | 20.9 | 28.7 | 0.00 | 0.00 | 0.00 | 42 | 1018.8 |
| 20260507222004 | 50 | 290 | 15.6 | 32.2 | 0.00 | 0.00 | 0.00 | 40 | 1018.5 |
| 20260507221522 | 51 | 285 | 16.5 | 32.2 | 0.00 | 0.00 | 0.00 | 43 | 1018.5 |
| 20260507221008 | 49 | 267 | 9.6 | 20.9 | 0.00 | 0.00 | 0.00 | 43 | 1018.6 |
| 20260507220508 | 48 | 284 | 13.0 | 20.9 | 0.00 | 0.00 | 0.00 | 43 | 1018.7 |
| 20260507220021 | 49 | 276 | 11.3 | 20.0 | 0.00 | 0.00 | 0.00 | 43 | 1018.7 |
| 20260507215510 | 50 | 290 | 11.3 | 21.7 | 0.00 | 0.00 | 0.00 | 40 | 1018.8 |
| 20260507215008 | 49 | 323 | 12.2 | 21.7 | 0.00 | 0.00 | 0.00 | 39 | 1018.8 |
| 20260507214524 | 49 | 262 | 13.0 | 20.0 | 0.00 | 0.00 | 0.00 | 45 | 1018.9 |
| 20260507214009 | 50 | 264 | 11.3 | 20.0 | 0.00 | 0.00 | 0.00 | 43 | 1019.0 |
| 20260507213504 | 51 | 248 | 8.7 | 27.8 | 0.00 | 0.00 | 0.00 | 46 | 1019.1 |
| 20260507213009 | 49 | 283 | 16.5 | 27.8 | 0.00 | 0.00 | 0.00 | 44 | 1019.0 |
| 20260507212504 | 50 | 266 | 9.6 | 20.9 | 0.00 | 0.00 | 0.00 | 43 | 1019.1 |
| 20260507212003 | 50 | 278 | 14.8 | 24.3 | 0.00 | 0.00 | 0.00 | 46 | 1019.5 |
| 20260507211510 | 50 | 260 | 7.8 | 24.3 | 0.00 | 0.00 | 0.00 | 49 | 1019.4 |
| 20260507211008 | 49 | 254 | 11.3 | 23.5 | 0.00 | 0.00 | 0.00 | 47 | 1019.4 |
| 20260507210506 | 49 | 298 | 13.0 | 27.8 | 0.00 | 0.00 | 0.00 | 46 | 1019.7 |
| 20260507210018 | 48 | 275 | 12.2 | 27.8 | 0.00 | 0.00 | 0.00 | 49 | 1019.6 |
| 20260507205506 | 48 | 276 | 19.1 | 34.8 | 0.00 | 0.00 | 0.00 | 46 | 1019.8 |
| 20260507205008 | 47 | 314 | 13.9 | 34.8 | 0.00 | 0.00 | 0.00 | 47 | 1019.8 |
| 20260507204522 | 48 | 239 | 8.7 | 26.9 | 0.00 | 0.00 | 0.00 | 48 | 1019.8 |
| 20260507204008 | 48 | 290 | 14.8 | 27.8 | 0.00 | 0.00 | 0.00 | 49 | 1019.9 |
| 20260507203511 | 47 | 256 | 18.2 | 27.8 | 0.00 | 0.00 | 0.00 | 48 | 1019.9 |
| 20260507203026 | 48 | 271 | 13.0 | 31.3 | 0.00 | 0.00 | 0.00 | 52 | 1020.1 |
| 20260507202508 | 47 | 255 | 14.8 | 31.3 | 0.00 | 0.00 | 0.00 | 48 | 1019.9 |
| 20260507202004 | 49 | 257 | 7.8 | 26.1 | 0.00 | 0.00 | 0.00 | 52 | 1019.9 |
| 20260507201507 | 48 | 252 | 11.3 | 23.5 | 0.00 | 0.00 | 0.00 | 53 | 1019.8 |
| 20260507201004 | 47 | 259 | 14.8 | 27.8 | 0.00 | 0.00 | 0.00 | 52 | 1020.0 |
| 20260507200504 | 46 | 244 | 14.8 | 27.8 | 0.00 | 0.00 | 0.00 | 52 | 1020.1 |
| 20260507200014 | 48 | 265 | 15.6 | 24.3 | 0.00 | 0.00 | 0.00 | 50 | 1020.2 |
| 20260507195503 | 48 | 262 | 13.9 | 25.2 | 0.00 | 0.00 | 0.00 | 54 | 1020.3 |
| 20260507195011 | 47 | 288 | 12.2 | 30.4 | 0.00 | 0.00 | 0.00 | 53 | 1019.9 |
| 20260507194529 | 46 | 285 | 18.2 | 30.4 | 0.00 | 0.00 | 0.00 | 50 | 1020.1 |
| 20260507194007 | 47 | 294 | 16.5 | 26.9 | 0.00 | 0.00 | 0.00 | 53 | 1019.8 |
| 20260507193513 | 45 | 272 | 17.4 | 26.1 | 0.00 | 0.00 | 0.00 | 52 | 1019.9 |
| 20260507193020 | 46 | 274 | 15.6 | 23.5 | 0.00 | 0.00 | 0.00 | 52 | 1020.1 |
| 20260507192508 | 45 | 262 | 16.5 | 25.2 | 0.00 | 0.00 | 0.00 | 51 | 1020.1 |
| 20260507192007 | 45 | 285 | 15.6 | 26.1 | 0.00 | 0.00 | 0.00 | 49 | 1020.1 |
| 20260507191526 | 45 | 288 | 19.1 | 26.1 | 0.00 | 0.00 | 0.00 | 50 | 1020.2 |
| 20260507191009 | 45 | 246 | 12.2 | 20.9 | 0.00 | 0.00 | 0.00 | 52 | 1020.2 |
| 20260507190509 | 44 | 271 | 14.8 | 26.9 | 0.00 | 0.00 | 0.00 | 51 | 1020.5 |
| 20260507190013 | 44 | 274 | 15.6 | 27.8 | 0.00 | 0.00 | 0.00 | 50 | 1020.6 |
| 20260507185507 | 45 | 274 | 13.9 | 27.8 | 0.00 | 0.00 | 0.00 | 53 | 1020.6 |
| 20260507185008 | 44 | 274 | 16.5 | 27.8 | 0.00 | 0.00 | 0.00 | 50 | 1020.6 |
| 20260507184511 | 44 | 291 | 13.0 | 26.9 | 0.00 | 0.00 | 0.00 | 51 | 1020.7 |
| 20260507184008 | 44 | 277 | 14.8 | 26.1 | 0.00 | 0.00 | 0.00 | 49 | 1020.8 |
| 20260507183508 | 45 | 248 | 13.9 | 22.6 | 0.00 | 0.00 | 0.00 | 49 | 1020.7 |
| 20260507183020 | 44 | 247 | 14.8 | 22.6 | 0.00 | 0.01 | 0.00 | 51 | 1020.6 |
| 20260507182508 | 43 | 268 | 14.8 | 22.6 | 0.00 | 0.01 | 0.00 | 51 | 1020.7 |
| 20260507182010 | 44 | 257 | 13.9 | 20.9 | 0.00 | 0.02 | 0.00 | 51 | 1020.6 |
| 20260507181526 | 43 | 240 | 11.3 | 26.1 | 0.00 | 0.02 | 0.00 | 50 | 1020.6 |
| 20260507181007 | 42 | 309 | 12.2 | 26.1 | 0.00 | 0.03 | 0.00 | 52 | 1020.6 |
| 20260507180508 | 42 | 282 | 7.8 | 20.0 | 0.00 | 0.04 | 0.00 | 52 | 1020.8 |
| 20260507180026 | 42 | 277 | 13.0 | 20.0 | 0.00 | 0.05 | 0.00 | 51 | 1020.7 |
| 20260507175508 | 43 | 264 | 8.7 | 18.2 | 0.00 | 0.07 | 0.00 | 54 | 1020.9 |
| 20260507175008 | 42 | 263 | 11.3 | 18.2 | 0.00 | 0.09 | 0.00 | 51 | 1021.0 |
| 20260507174513 | 42 | 262 | 7.0 | 18.2 | 0.00 | 0.11 | 0.00 | 54 | 1021.2 |
| 20260507174006 | 42 | 299 | 9.6 | 18.2 | 0.00 | 0.13 | 0.00 | 53 | 1021.2 |
| 20260507173513 | 41 | 284 | 10.4 | 16.5 | 0.00 | 0.13 | 0.00 | 53 | 1021.1 |
| 20260507173034 | 41 | 240 | 10.4 | 16.5 | 0.00 | 0.13 | 0.00 | 53 | 1021.1 |
| 20260507172508 | 40 | 268 | 7.8 | 13.9 | 0.00 | 0.13 | 0.00 | 52 | 1021.3 |
| 20260507172004 | 40 | 255 | 7.8 | 15.6 | 0.00 | 0.13 | 0.00 | 52 | 1021.4 |
| 20260507171521 | 40 | 300 | 6.1 | 15.6 | 0.00 | 0.13 | 0.00 | 55 | 1021.5 |
| 20260507171010 | 39 | 286 | 8.7 | 18.2 | 0.00 | 0.13 | 0.00 | 53 | 1021.6 |
| 20260507170509 | 39 | 278 | 10.4 | 18.2 | 0.00 | 0.13 | 0.00 | 53 | 1021.6 |
| 20260507170024 | 39 | 257 | 10.4 | 15.6 | 0.00 | 0.13 | 0.00 | 53 | 1021.5 |
| 20260507165508 | 38 | 279 | 6.1 | 10.4 | 0.00 | 0.13 | 0.00 | 54 | 1021.7 |
| 20260507165009 | 38 | 297 | 5.2 | 13.0 | 0.00 | 0.13 | 0.00 | 55 | 1021.7 |
| 20260507164533 | 37 | 294 | 6.1 | 13.0 | 0.00 | 0.13 | 0.00 | 56 | 1021.7 |
| 20260507164011 | 37 | 285 | 7.8 | 13.0 | 0.00 | 0.13 | 0.00 | 55 | 1021.7 |
| 20260507163507 | 37 | 279 | 7.0 | 14.8 | 0.00 | 0.13 | 0.00 | 56 | 1021.7 |
| 20260507163014 | 37 | 266 | 7.8 | 14.8 | 0.00 | 0.13 | 0.00 | 56 | 1021.7 |
| 20260507162508 | 37 | 286 | 7.0 | 14.8 | 0.00 | 0.13 | 0.00 | 57 | 1021.7 |
| 20260507162006 | 37 | 274 | 7.8 | 14.8 | 0.00 | 0.13 | 0.00 | 57 | 1021.8 |
| 20260507161518 | 36 | 281 | 5.2 | 11.3 | 0.00 | 0.13 | 0.00 | 58 | 1022.0 |
| 20260507161007 | 36 | 231 | 1.7 | 5.2 | 0.00 | 0.13 | 0.00 | 59 | 1022.1 |
| 20260507160512 | 36 | 207 | 0.9 | 3.5 | 0.00 | 0.13 | 0.00 | 59 | 1022.1 |
| 20260507160025 | 35 | 229 | 0.0 | 2.6 | 0.00 | 0.13 | 0.00 | 56 | 1022.2 |
| 20260507155509 | 35 | 186 | 0.9 | 4.3 | 0.00 | 0.13 | 0.00 | 59 | 1022.2 |
| 20260507155010 | 35 | 263 | 1.7 | 4.3 | 0.00 | 0.13 | 0.00 | 56 | 1022.3 |
| 20260507154523 | 35 | 304 | 1.7 | 3.5 | 0.00 | 0.13 | 0.00 | 56 | 1022.4 |
| 20260507154008 | 34 | 154 | 1.7 | 4.3 | 0.00 | 0.13 | 0.00 | 59 | 1022.4 |
| 20260507153507 | 34 | 226 | 2.6 | 4.3 | 0.00 | 0.13 | 0.00 | 57 | 1022.4 |
| 20260507153034 | 33 | 347 | 0.9 | 3.5 | 0.00 | 0.13 | 0.00 | 58 | 1022.5 |
| 20260507152520 | 33 | 323 | 1.7 | 5.2 | 0.00 | 0.13 | 0.00 | 57 | 1022.4 |
| 20260507152010 | 32 | 250 | 1.7 | 5.2 | 0.00 | 0.13 | 0.00 | 57 | 1022.5 |
| 20260507151531 | 33 | 173 | 0.0 | 4.3 | 0.00 | 0.13 | 0.00 | 58 | 1022.5 |
| 20260507151004 | 32 | 165 | 2.6 | 4.3 | 0.00 | 0.13 | 0.00 | 58 | 1022.7 |
| 20260507150505 | 32 | 214 | 0.9 | 4.3 | 0.00 | 0.13 | 0.00 | 59 | 1022.7 |
| 20260507150018 | 32 | 200 | 2.6 | 4.3 | 0.00 | 0.13 | 0.00 | 58 | 1022.8 |
| 20260507145507 | 32 | 165 | 1.7 | 3.5 | 0.00 | 0.13 | 0.00 | 57 | 1022.9 |
| 20260507145011 | 31 | 245 | 0.9 | 1.7 | 0.00 | 0.13 | 0.00 | 56 | 1023.0 |
| 20260507144530 | 31 | 195 | 0.0 | 1.7 | 0.00 | 0.13 | 0.00 | 60 | 1023.0 |
| 20260507144007 | 30 | 205 | 0.0 | 0.0 | 0.00 | 0.13 | 0.00 | 63 | 1023.0 |
| 20260507143508 | 29 | 205 | 0.0 | 0.9 | 0.00 | 0.13 | 0.00 | 71 | 1023.0 |
| 20260507143027 | 28 | 219 | 0.0 | 0.9 | 0.00 | 0.13 | 0.00 | 71 | 1023.0 |
| 20260507142509 | 27 | 205 | 0.0 | 0.0 | 0.00 | 0.13 | 0.00 | 69 | 1023.1 |
| 20260507142008 | 26 | 205 | 0.0 | 0.0 | 0.00 | 0.13 | 0.00 | 72 | 1023.4 |
| 20260507141529 | 26 | 205 | 0.0 | 0.0 | 0.00 | 0.13 | 0.00 | 75 | 1023.5 |
| 20260507141011 | 25 | 205 | 0.0 | 0.9 | 0.00 | 0.13 | 0.00 | 74 | 1023.5 |
| 20260507140512 | 25 | 219 | 0.9 | 0.9 | 0.00 | 0.13 | 0.00 | 74 | 1023.5 |
| 20260507140028 | 25 | 263 | 0.0 | 0.9 | 0.00 | 0.13 | 0.00 | 74 | 1023.5 |
| 20260507135508 | 25 | 263 | 0.0 | 0.9 | 0.00 | 0.13 | 0.00 | 75 | 1023.5 |
| 20260507135007 | 25 | 263 | 0.0 | 0.9 | 0.00 | 0.13 | 0.00 | 74 | 1023.6 |
| 20260507134518 | 25 | 217 | 0.0 | 0.9 | 0.00 | 0.13 | 0.00 | 72 | 1023.4 |
| 20260507134004 | 26 | 117 | 0.0 | 0.9 | 0.00 | 0.13 | 0.00 | 74 | 1023.4 |
| 20260507133503 | 26 | 148 | 0.0 | 0.9 | 0.00 | 0.13 | 0.00 | 71 | 1023.4 |
| 20260507133006 | 26 | 148 | 0.0 | 0.9 | 0.00 | 0.13 | 0.00 | 75 | 1023.5 |
| 20260507132505 | 25 | 148 | 0.0 | 0.9 | 0.00 | 0.13 | 0.00 | 79 | 1023.5 |
| 20260507132006 | 24 | 224 | 0.0 | 0.9 | 0.00 | 0.13 | 0.00 | 76 | 1023.5 |
| 20260507131516 | 23 | 224 | 0.0 | 0.9 | 0.00 | 0.13 | 0.00 | 81 | 1023.2 |
| 20260507131005 | 22 | 224 | 0.0 | 0.9 | 0.00 | 0.13 | 0.00 | 81 | 1023.2 |
| 20260507130506 | 22 | 224 | 0.0 | 1.7 | 0.00 | 0.13 | 0.00 | 80 | 1023.2 |
| 20260507130009 | 23 | 224 | 0.9 | 1.7 | 0.00 | 0.13 | 0.00 | 80 | 1023.4 |
| 20260507125507 | 23 | 246 | 0.9 | 1.7 | 0.00 | 0.13 | 0.00 | 81 | 1023.4 |
| 20260507125004 | 22 | 204 | 0.0 | 0.0 | 0.00 | 0.13 | 0.00 | 82 | 1023.2 |
| 20260507124513 | 22 | 204 | 0.0 | 0.0 | 0.00 | 0.13 | 0.00 | 82 | 1023.3 |
| 20260507124008 | 22 | 204 | 0.0 | 0.9 | 0.00 | 0.13 | 0.00 | 82 | 1023.2 |
| 20260507123505 | 22 | 204 | 0.0 | 0.9 | 0.00 | 0.13 | 0.00 | 82 | 1023.1 |
| 20260507123009 | 22 | 218 | 0.0 | 0.9 | 0.00 | 0.13 | 0.00 | 82 | 1023.2 |
| 20260507122505 | 22 | 218 | 0.0 | 0.9 | 0.00 | 0.13 | 0.00 | 82 | 1023.1 |
| 20260507122006 | 22 | 232 | 0.0 | 0.0 | 0.00 | 0.13 | 0.00 | 81 | 1023.2 |
| 20260507121510 | 22 | 232 | 0.0 | 0.9 | 0.00 | 0.13 | 0.00 | 79 | 1023.2 |
| 20260507121004 | 23 | 232 | 0.0 | 0.9 | 0.00 | 0.13 | 0.00 | 80 | 1023.2 |
| 20260507120504 | 23 | 222 | 0.9 | 1.7 | 0.00 | 0.13 | 0.00 | 77 | 1023.1 |
| 20260507120008 | 23 | 124 | 0.0 | 1.7 | 0.00 | 0.13 | 0.00 | 80 | 1023.0 |
| 20260507115506 | 24 | 110 | 0.9 | 1.7 | 0.00 | 0.13 | 0.00 | 79 | 1022.8 |
| 20260507115005 | 24 | 110 | 0.9 | 3.5 | 0.00 | 0.13 | 0.00 | 79 | 1022.8 |
| 20260507114512 | 24 | 139 | 1.7 | 3.5 | 0.00 | 0.13 | 0.00 | 80 | 1022.9 |
| 20260507114005 | 24 | 91 | 1.7 | 3.5 | 0.00 | 0.13 | 0.00 | 79 | 1022.9 |
| 20260507113505 | 24 | 117 | 1.7 | 3.5 | 0.00 | 0.13 | 0.00 | 78 | 1022.8 |
| 20260507113034 | 24 | 103 | 1.7 | 2.6 | 0.00 | 0.13 | 0.00 | 79 | 1022.8 |
| 20260507112507 | 24 | 95 | 1.7 | 2.6 | 0.00 | 0.13 | 0.00 | 77 | 1022.8 |
| 20260507112007 | 24 | 108 | 1.7 | 2.6 | 0.00 | 0.13 | 0.00 | 78 | 1022.7 |
| 20260507111512 | 24 | 108 | 1.7 | 2.6 | 0.00 | 0.13 | 0.00 | 78 | 1022.7 |
| 20260507111007 | 24 | 101 | 0.9 | 1.7 | 0.00 | 0.13 | 0.00 | 79 | 1022.7 |
| 20260507110507 | 24 | 101 | 0.9 | 1.7 | 0.00 | 0.13 | 0.00 | 78 | 1022.7 |
| 20260507110016 | 24 | 112 | 0.9 | 1.7 | 0.00 | 0.13 | 0.00 | 78 | 1022.7 |
| 20260507105504 | 24 | 91 | 1.7 | 1.7 | 0.00 | 0.13 | 0.00 | 78 | 1022.7 |
| 20260507105004 | 24 | 101 | 0.9 | 1.7 | 0.00 | 0.13 | 0.00 | 78 | 1022.6 |
| 20260507104506 | 24 | 101 | 0.9 | 2.6 | 0.00 | 0.13 | 0.00 | 79 | 1022.7 |
| 20260507104007 | 24 | 85 | 0.9 | 2.6 | 0.00 | 0.13 | 0.00 | 79 | 1022.7 |
| 20260507103506 | 24 | 103 | 1.7 | 1.7 | 0.00 | 0.13 | 0.00 | 79 | 1022.7 |
| 20260507103017 | 24 | 112 | 0.9 | 1.7 | 0.00 | 0.13 | 0.00 | 80 | 1022.7 |
| 20260507102504 | 24 | 113 | 0.9 | 1.7 | 0.00 | 0.13 | 0.00 | 79 | 1022.7 |
| 20260507102006 | 23 | 113 | 0.9 | 1.7 | 0.00 | 0.13 | 0.00 | 78 | 1022.7 |
| 20260507101518 | 23 | 165 | 0.0 | 0.0 | 0.00 | 0.13 | 0.00 | 78 | 1022.8 |
| 20260507101005 | 23 | 165 | 0.0 | 0.0 | 0.00 | 0.13 | 0.00 | 76 | 1022.7 |
| 20260507100503 | 23 | 165 | 0.0 | 0.0 | 0.00 | 0.13 | 0.00 | 77 | 1022.8 |
| 20260507100014 | 23 | 165 | 0.0 | 0.0 | 0.00 | 0.13 | 0.00 | 76 | 1022.7 |
| 20260507095506 | 23 | 165 | 0.0 | 0.0 | 0.00 | 0.13 | 0.00 | 75 | 1022.7 |
| 20260507095009 | 23 | 164 | 0.0 | 0.0 | 0.00 | 0.13 | 0.00 | 75 | 1022.8 |
| 20260507094516 | 24 | 165 | 0.0 | 1.7 | 0.00 | 0.13 | 0.00 | 75 | 1022.9 |
| 20260507094007 | 24 | 164 | 0.0 | 1.7 | 0.00 | 0.13 | 0.00 | 73 | 1022.8 |
| 20260507093506 | 24 | 207 | 0.0 | 1.7 | 0.00 | 0.13 | 0.00 | 73 | 1022.8 |
| 20260507093005 | 24 | 249 | 0.0 | 0.0 | 0.00 | 0.13 | 0.00 | 74 | 1022.8 |
| 20260507092507 | 24 | 162 | 0.0 | 0.0 | 0.00 | 0.13 | 0.00 | 73 | 1022.7 |
| 20260507092008 | 24 | 162 | 0.0 | 0.0 | 0.00 | 0.13 | 0.00 | 74 | 1022.8 |
| 20260507091510 | 24 | 211 | 0.0 | 0.9 | 0.00 | 0.13 | 0.00 | 72 | 1022.9 |
| 20260507091004 | 24 | 214 | 0.0 | 0.9 | 0.00 | 0.13 | 0.00 | 70 | 1022.8 |
| 20260507090512 | 24 | 269 | 0.9 | 0.9 | 0.00 | 0.13 | 0.00 | 71 | 1022.9 |
| 20260507090015 | 24 | 187 | 0.0 | 0.9 | 0.00 | 0.13 | 0.00 | 72 | 1022.9 |
| 20260507085504 | 24 | 196 | 0.0 | 0.9 | 0.00 | 0.13 | 0.00 | 70 | 1022.9 |
| 20260507085008 | 24 | 259 | 0.0 | 0.9 | 0.00 | 0.13 | 0.00 | 69 | 1022.9 |
| 20260507084517 | 24 | 259 | 0.0 | 0.9 | 0.00 | 0.13 | 0.00 | 70 | 1022.8 |
| 20260507084009 | 25 | 98 | 0.0 | 1.7 | 0.00 | 0.13 | 0.00 | 68 | 1022.8 |
| 20260507083508 | 25 | 98 | 0.0 | 3.5 | 0.00 | 0.13 | 0.00 | 67 | 1022.8 |
| 20260507083016 | 25 | 91 | 2.6 | 3.5 | 0.00 | 0.13 | 0.00 | 66 | 1023.0 |
| 20260507082507 | 26 | 113 | 1.7 | 3.5 | 0.00 | 0.13 | 0.00 | 65 | 1022.9 |
| 20260507082007 | 26 | 123 | 1.7 | 3.5 | 0.00 | 0.13 | 0.00 | 65 | 1022.9 |
| 20260507081509 | 25 | 105 | 1.7 | 4.3 | 0.00 | 0.13 | 0.00 | 65 | 1022.9 |
| 20260507081003 | 25 | 105 | 2.6 | 4.3 | 0.00 | 0.13 | 0.00 | 65 | 1022.9 |
| 20260507080508 | 25 | 100 | 2.6 | 3.5 | 0.00 | 0.13 | 0.00 | 66 | 1023.0 |
| 20260507080012 | 25 | 99 | 0.9 | 2.6 | 0.00 | 0.13 | 0.00 | 66 | 1022.8 |
| 20260507075504 | 25 | 263 | 0.0 | 0.0 | 0.00 | 0.13 | 0.00 | 66 | 1023.0 |